Total_Precipitation_Accumulation
0.27 0.29 0.29 0.32 0.30 0.26 0.23 0.23 0.25 0.29 0.32 0.33 0.31 0.29 0.35 0.36 0.49 0.37 0.16 0.07 0.03 0.01 0.00 0.00 0.01 0.00 0.00 0.00 0.00 0.00 0.00 0.01 0.02 0.03 0.06 0.08 0.06 0.04 0.03 0.04 0.02 0.02 0.04 0.09 0.14 0.18 0.23 0.21 0.21 0.23 0.24 0.20 0.23 0.41 0.58 0.71 1.05 1.08 1.42 1.47 1.43 1.17 1.28 1.49 1.27 1.28 1.23 1.15 0.97 0.86 0.54 0.54 0.66 0.61
0.27 0.30 0.32 0.32 0.33 0.29 0.31 0.32 0.28 0.29 0.33 0.38 0.39 0.37 0.33 0.34 0.48 0.38 0.27 0.15 0.05 0.02 0.00 0.00 0.00 0.01 0.00 0.00 0.00 0.01 0.01 0.01 0.02 0.04 0.04 0.05 0.04 0.03 0.02 0.02 0.02 0.01 0.01 0.04 0.08 0.13 0.18 0.24 0.22 0.21 0.18 0.22 0.19 0.21 0.39 0.55 0.89 1.29 1.27 1.35 1.47 1.13 1.01 1.03 1.24 1.14 0.99 1.16 1.25 0.88 0.71 0.59 0.60 0.60
0.28 0.33 0.34 0.32 0.33 0.31 0.33 0.35 0.35 0.37 0.40 0.44 0.41 0.36 0.31 0.32 0.37 0.41 0.35 0.34 0.13 0.03 0.04 0.02 0.00 0.00 0.01 0.01 0.00 0.00 0.01 0.01 0.02 0.02 0.03 0.03 0.03 0.03 0.02 0.02 0.02 0.02 0.01 0.02 0.02 0.08 0.14 0.21 0.26 0.25 0.20 0.19 0.20 0.17 0.22 0.34 0.61 0.89 1.20 1.35 1.32 1.41 0.98 1.02 0.91 1.03 0.90 0.88 1.11 1.05 0.87 0.71 0.60 0.59
0.21 0.26 0.30 0.31 0.32 0.34 0.39 0.42 0.42 0.43 0.44 0.47 0.54 0.52 0.43 0.38 0.34 0.39 0.48 0.45 0.24 0.04 0.02 0.03 0.04 0.03 0.02 0.03 0.02 0.01 0.01 0.01 0.02 0.03 0.03 0.03 0.03 0.03 0.03 0.02 0.02 0.01 0.01 0.01 0.02 0.03 0.07 0.15 0.25 0.26 0.26 0.22 0.22 0.18 0.20 0.23 0.33 0.70 0.83 1.29 1.41 1.47 1.13 0.87 0.96 0.98 0.93 0.94 0.87 0.95 0.87 0.74 0.70 0.66
0.17 0.23 0.27 0.27 0.28 0.33 0.45 0.47 0.45 0.46 0.49 0.53 0.60 0.64 0.61 0.53 0.38 0.38 0.46 0.46 0.28 0.10 0.06 0.04 0.06 0.09 0.10 0.10 0.07 0.03 0.01 0.01 0.02 0.02 0.03 0.03 0.04 0.04 0.03 0.02 0.02 0.01 0.01 0.01 0.01 0.01 0.04 0.08 0.18 0.25 0.33 0.27 0.26 0.21 0.18 0.18 0.21 0.29 0.49 0.76 1.25 1.39 1.47 0.97 0.70 0.88 1.00 0.94 1.01 0.91 1.05 0.84 0.71 0.70
0.12 0.18 0.22 0.21 0.22 0.24 0.36 0.44 0.45 0.43 0.45 0.53 0.64 0.65 0.68 0.64 0.48 0.37 0.51 0.50 0.36 0.19 0.15 0.05 0.07 0.10 0.13 0.18 0.15 0.07 0.03 0.02 0.02 0.02 0.02 0.03 0.03 0.03 0.03 0.02 0.01 0.01 0.01 0.01 0.00 0.02 0.02 0.05 0.08 0.30 0.27 0.30 0.31 0.25 0.21 0.18 0.16 0.20 0.29 0.41 0.86 1.25 1.54 1.31 0.94 0.71 0.72 0.94 1.06 1.13 0.95 0.85 0.78 0.63
0.14 0.15 0.16 0.18 0.19 0.22 0.29 0.29 0.34 0.41 0.50 0.51 0.57 0.61 0.60 0.62 0.50 0.39 0.46 0.59 0.53 0.25 0.10 0.06 0.12 0.14 0.17 0.20 0.20 0.14 0.07 0.03 0.03 0.03 0.03 0.02 0.02 0.02 0.02 0.02 0.01 0.01 0.01 0.01 0.00 0.01 0.01 0.01 0.04 0.10 0.25 0.27 0.30 0.25 0.26 0.24 0.18 0.18 0.20 0.26 0.50 0.79 1.30 1.62 1.33 0.88 0.68 0.64 0.88 0.97 1.01 1.02 0.85 0.78
0.17 0.17 0.19 0.17 0.20 0.24 0.28 0.28 0.29 0.32 0.40 0.52 0.61 0.58 0.56 0.63 0.59 0.46 0.45 0.58 0.60 0.38 0.21 0.11 0.10 0.14 0.20 0.23 0.21 0.18 0.15 0.12 0.08 0.07 0.05 0.03 0.03 0.02 0.02 0.01 0.01 0.01 0.00 0.00 0.00 0.00 0.00 0.00 0.01 0.05 0.14 0.22 0.27 0.28 0.26 0.25 0.22 0.18 0.16 0.28 0.30 0.53 0.80 1.54 1.64 1.30 0.92 0.67 0.68 0.85 0.93 1.08 1.05 0.82
0.19 0.19 0.18 0.20 0.22 0.23 0.24 0.26 0.31 0.30 0.29 0.33 0.42 0.47 0.48 0.54 0.53 0.51 0.57 0.62 0.62 0.54 0.37 0.20 0.13 0.14 0.21 0.27 0.26 0.22 0.23 0.22 0.19 0.15 0.11 0.08 0.06 0.03 0.02 0.02 0.01 0.01 0.01 0.00 0.00 0.00 0.00 0.01 0.00 0.03 0.07 0.16 0.23 0.27 0.26 0.24 0.21 0.20 0.18 0.19 0.25 0.42 0.48 0.76 1.38 1.66 1.34 0.89 0.78 0.67 0.81 0.93 1.43 1.18
0.20 0.23 0.22 0.21 0.24 0.26 0.28 0.31 0.28 0.29 0.32 0.36 0.41 0.45 0.47 0.47 0.50 0.53 0.48 0.50 0.59 0.56 0.38 0.23 0.21 0.24 0.27 0.32 0.33 0.28 0.25 0.26 0.24 0.21 0.18 0.13 0.10 0.08 0.06 0.03 0.02 0.01 0.01 0.01 0.01 0.00 0.00 0.00 0.00 0.00 0.05 0.08 0.17 0.25 0.26 0.24 0.21 0.22 0.20 0.20 0.22 0.36 0.51 0.58 0.69 1.39 1.51 1.28 0.79 0.84 0.73 0.81 0.96 1.23
0.22 0.23 0.26 0.27 0.28 0.31 0.37 0.39 0.43 0.42 0.39 0.40 0.42 0.44 0.54 0.53 0.44 0.39 0.37 0.40 0.47 0.52 0.43 0.31 0.22 0.26 0.26 0.28 0.32 0.32 0.32 0.29 0.26 0.24 0.21 0.19 0.15 0.11 0.09 0.07 0.04 0.02 0.02 0.01 0.01 0.01 0.00 0.00 0.01 0.00 0.02 0.06 0.09 0.20 0.22 0.24 0.23 0.21 0.23 0.28 0.24 0.31 0.43 0.53 0.49 0.72 1.28 1.40 1.40 0.87 0.82 0.82 0.90 0.81
0.21 0.24 0.26 0.28 0.28 0.34 0.43 0.48 0.47 0.46 0.50 0.54 0.63 0.56 0.45 0.42 0.45 0.41 0.38 0.36 0.38 0.41 0.39 0.36 0.30 0.23 0.29 0.33 0.32 0.35 0.50 0.55 0.41 0.28 0.24 0.22 0.16 0.13 0.10 0.08 0.08 0.06 0.05 0.03 0.02 0.02 0.03 0.02 0.01 0.00 0.01 0.01 0.05 0.12 0.21 0.23 0.25 0.23 0.23 0.26 0.30 0.27 0.35 0.31 0.42 0.48 0.70 1.10 1.29 1.30 1.03 0.90 0.73 0.89
0.15 0.16 0.22 0.30 0.34 0.35 0.37 0.38 0.38 0.43 0.54 0.64 0.77 0.51 0.44 0.51 0.53 0.48 0.42 0.40 0.35 0.35 0.33 0.34 0.35 0.39 0.39 0.40 0.43 0.47 0.50 0.55 0.40 0.24 0.20 0.21 0.17 0.15 0.13 0.11 0.11 0.13 0.13 0.10 0.06 0.03 0.03 0.04 0.03 0.03 0.02 0.01 0.02 0.05 0.15 0.21 0.24 0.24 0.24 0.26 0.28 0.32 0.32 0.33 0.35 0.36 0.46 0.65 0.94 1.14 1.29 1.33 0.96 0.84
0.11 0.11 0.13 0.20 0.25 0.29 0.30 0.32 0.36 0.40 0.43 0.60 0.58 0.59 0.64 0.64 0.62 0.54 0.49 0.48 0.42 0.35 0.35 0.31 0.38 0.39 0.38 0.38 0.39 0.39 0.34 0.31 0.33 0.36 0.38 0.32 0.27 0.25 0.22 0.19 0.17 0.16 0.17 0.17 0.15 0.09 0.03 0.02 0.03 0.06 0.03 0.04 0.02 0.03 0.07 0.14 0.20 0.24 0.24 0.25 0.33 0.33 0.26 0.30 0.28 0.33 0.36 0.51 0.63 0.86 0.99 1.27 1.46 1.14
0.11 0.11 0.10 0.12 0.14 0.16 0.15 0.17 0.22 0.27 0.43 0.49 0.41 0.42 0.53 0.63 0.75 0.75 0.61 0.44 0.49 0.47 0.39 0.41 0.50 0.50 0.47 0.44 0.40 0.44 0.45 0.43 0.48 0.39 0.36 0.37 0.43 0.43 0.35 0.30 0.24 0.20 0.19 0.19 0.16 0.13 0.07 0.03 0.03 0.02 0.02 0.16 0.16 0.02 0.03 0.08 0.32 0.25 0.21 0.21 0.24 0.28 0.22 0.24 0.29 0.29 0.35 0.37 0.52 0.64 0.79 0.94 1.12 1.44
0.09 0.08 0.08 0.08 0.10 0.11 0.11 0.13 0.17 0.29 0.39 0.30 0.28 0.33 0.46 0.54 0.57 0.62 0.80 0.67 0.47 0.47 0.47 0.43 0.52 0.64 0.62 0.56 0.48 0.52 0.59 0.56 0.55 0.53 0.48 0.47 0.49 0.47 0.39 0.27 0.22 0.19 0.16 0.17 0.18 0.14 0.11 0.07 0.04 0.03 0.02 0.01 0.01 0.01 0.03 0.03 0.08 0.16 0.23 0.22 0.21 0.25 0.24 0.20 0.28 0.33 0.32 0.36 0.48 0.52 0.63 0.77 0.90 1.05
0.07 0.06 0.06 0.06 0.07 0.09 0.08 0.08 0.20 0.39 0.31 0.20 0.21 0.27 0.39 0.43 0.45 0.49 0.56 0.60 0.57 0.56 0.53 0.46 0.41 0.48 0.59 0.53 0.49 0.56 0.60 0.59 0.59 0.54 0.52 0.46 0.43 0.43 0.39 0.33 0.25 0.24 0.21 0.22 0.24 0.20 0.15 0.10 0.07 0.04 0.02 0.03 0.01 0.00 0.00 0.02 0.04 0.10 0.19 0.25 0.23 0.24 0.21 0.22 0.21 0.31 0.30 0.36 0.45 0.50 0.49 0.62 0.80 0.83
0.06 0.08 0.11 0.12 0.11 0.11 0.10 0.12 0.32 0.39 0.24 0.15 0.15 0.24 0.35 0.37 0.37 0.40 0.46 0.54 0.52 0.50 0.57 0.54 0.51 0.48 0.55 0.53 0.47 0.56 0.61 0.61 0.65 0.49 0.45 0.37 0.37 0.41 0.40 0.38 0.39 0.41 0.42 0.31 0.30 0.25 0.18 0.14 0.10 0.07 0.04 0.02 0.02 0.01 0.00 0.00 0.02 0.05 0.13 0.20 0.25 0.23 0.22 0.22 0.24 0.28 0.31 0.33 0.34 0.47 0.51 0.57 0.69 0.87
0.08 0.07 0.09 0.12 0.14 0.17 0.13 0.18 0.33 0.39 0.26 0.15 0.15 0.21 0.30 0.35 0.36 0.38 0.44 0.49 0.52 0.55 0.55 0.56 0.55 0.52 0.49 0.51 0.45 0.44 0.47 0.52 0.56 0.59 0.46 0.40 0.38 0.48 0.68 0.51 0.47 0.47 0.45 0.38 0.36 0.34 0.21 0.15 0.12 0.10 0.08 0.06 0.04 0.02 0.01 0.01 0.02 0.03 0.07 0.14 0.20 0.23 0.21 0.21 0.24 0.27 0.33 0.35 0.36 0.35 0.41 0.57 0.56 0.79
0.04 0.05 0.07 0.10 0.12 0.20 0.15 0.23 0.29 0.33 0.26 0.12 0.14 0.17 0.22 0.29 0.32 0.37 0.42 0.46 0.51 0.60 0.69 0.67 0.65 0.69 0.61 0.58 0.56 0.54 0.51 0.47 0.50 0.55 0.50 0.51 0.56 0.56 0.57 0.50 0.40 0.37 0.41 0.37 0.32 0.24 0.22 0.19 0.14 0.12 0.12 0.10 0.09 0.06 0.03 0.01 0.01 0.02 0.05 0.09 0.15 0.20 0.22 0.20 0.19 0.21 0.25 0.33 0.38 0.33 0.37 0.47 0.55 0.60
0.04 0.04 0.07 0.11 0.20 0.25 0.20 0.26 0.30 0.29 0.20 0.13 0.16 0.18 0.21 0.26 0.28 0.31 0.35 0.38 0.39 0.42 0.46 0.53 0.55 0.55 0.58 0.58 0.55 0.54 0.52 0.52 0.54 0.67 0.72 0.59 0.43 0.42 0.47 0.40 0.38 0.33 0.36 0.37 0.28 0.19 0.16 0.17 0.16 0.17 0.17 0.15 0.12 0.11 0.08 0.04 0.02 0.02 0.03 0.05 0.09 0.16 0.19 0.21 0.20 0.20 0.22 0.27 0.33 0.38 0.39 0.45 0.47 0.60
0.03 0.03 0.05 0.09 0.26 0.29 0.25 0.23 0.27 0.25 0.33 0.14 0.16 0.18 0.18 0.21 0.23 0.24 0.28 0.31 0.34 0.37 0.39 0.48 0.52 0.53 0.64 0.65 0.52 0.52 0.59 0.58 0.59 0.60 0.62 0.63 0.56 0.50 0.41 0.38 0.31 0.32 0.36 0.39 0.28 0.22 0.18 0.18 0.18 0.18 0.21 0.20 0.18 0.15 0.12 0.09 0.06 0.04 0.04 0.04 0.05 0.08 0.14 0.19 0.20 0.19 0.19 0.24 0.27 0.34 0.43 0.42 0.49 0.57
0.03 0.03 0.04 0.06 0.20 0.25 0.24 0.20 0.23 0.20 0.19 0.14 0.16 0.22 0.23 0.24 0.23 0.23 0.24 0.27 0.30 0.29 0.29 0.35 0.44 0.48 0.54 0.65 0.53 0.49 0.52 0.54 0.51 0.61 0.59 0.49 0.49 0.51 0.49 0.49 0.45 0.46 0.47 0.37 0.32 0.25 0.25 0.25 0.27 0.22 0.26 0.28 0.21 0.17 0.16 0.14 0.11 0.09 0.07 0.06 0.06 0.06 0.10 0.13 0.15 0.20 0.21 0.22 0.26 0.29 0.36 0.44 0.47 0.61
0.03 0.02 0.04 0.04 0.14 0.19 0.17 0.16 0.18 0.18 0.15 0.16 0.17 0.19 0.24 0.30 0.30 0.24 0.23 0.23 0.28 0.29 0.29 0.31 0.35 0.34 0.33 0.53 0.57 0.46 0.43 0.50 0.55 0.54 0.48 0.47 0.42 0.36 0.40 0.46 0.48 0.41 0.40 0.33 0.31 0.28 0.26 0.25 0.28 0.27 0.23 0.19 0.21 0.19 0.16 0.16 0.15 0.13 0.11 0.09 0.09 0.07 0.10 0.10 0.12 0.14 0.20 0.22 0.26 0.30 0.34 0.38 0.49 0.53
0.04 0.04 0.05 0.06 0.12 0.15 0.13 0.13 0.14 0.15 0.12 0.12 0.13 0.21 0.24 0.28 0.23 0.17 0.15 0.15 0.16 0.19 0.19 0.20 0.23 0.23 0.23 0.33 0.41 0.38 0.40 0.41 0.48 0.52 0.48 0.50 0.49 0.43 0.34 0.28 0.31 0.37 0.40 0.40 0.32 0.26 0.35 0.42 0.44 0.38 0.26 0.22 0.17 0.15 0.16 0.14 0.15 0.16 0.14 0.12 0.12 0.09 0.10 0.10 0.11 0.16 0.17 0.22 0.26 0.31 0.33 0.37 0.43 0.51
0.04 0.06 0.08 0.09 0.11 0.12 0.10 0.10 0.10 0.12 0.11 0.10 0.12 0.14 0.12 0.10 0.10 0.09 0.09 0.09 0.10 0.11 0.13 0.13 0.14 0.15 0.18 0.23 0.28 0.28 0.33 0.35 0.38 0.46 0.47 0.48 0.49 0.47 0.48 0.43 0.37 0.31 0.34 0.34 0.29 0.26 0.27 0.39 0.33 0.36 0.34 0.23 0.18 0.16 0.19 0.19 0.19 0.18 0.17 0.16 0.12 0.10 0.11 0.11 0.11 0.12 0.14 0.17 0.22 0.28 0.33 0.36 0.40 0.46
0.06 0.07 0.09 0.09 0.09 0.10 0.09 0.08 0.06 0.08 0.09 0.08 0.10 0.08 0.06 0.04 0.04 0.05 0.06 0.06 0.07 0.07 0.08 0.10 0.11 0.11 0.10 0.15 0.22 0.23 0.25 0.28 0.32 0.40 0.48 0.44 0.48 0.48 0.46 0.48 0.47 0.45 0.43 0.41 0.37 0.28 0.28 0.33 0.33 0.36 0.32 0.24 0.18 0.20 0.20 0.21 0.19 0.19 0.20 0.19 0.17 0.15 0.23 0.16 0.13 0.11 0.12 0.13 0.16 0.26 0.35 0.39 0.37 0.44
0.06 0.09 0.10 0.10 0.07 0.07 0.07 0.05 0.05 0.04 0.06 0.08 0.07 0.05 0.03 0.02 0.02 0.04 0.03 0.05 0.06 0.06 0.07 0.08 0.09 0.09 0.09 0.10 0.13 0.15 0.19 0.24 0.28 0.30 0.31 0.34 0.51 0.45 0.44 0.49 0.42 0.39 0.38 0.41 0.36 0.35 0.35 0.32 0.30 0.25 0.29 0.33 0.26 0.23 0.22 0.20 0.18 0.16 0.17 0.18 0.18 0.17 0.17 0.14 0.13 0.13 0.14 0.13 0.14 0.18 0.28 0.40 0.38 0.43
0.05 0.07 0.07 0.07 0.06 0.06 0.06 0.03 0.03 0.03 0.04 0.05 0.05 0.03 0.02 0.01 0.02 0.03 0.04 0.05 0.05 0.04 0.05 0.05 0.06 0.07 0.07 0.09 0.10 0.11 0.12 0.17 0.24 0.29 0.30 0.29 0.36 0.35 0.38 0.40 0.36 0.34 0.45 0.43 0.43 0.40 0.38 0.36 0.34 0.31 0.25 0.22 0.27 0.26 0.22 0.20 0.17 0.20 0.18 0.20 0.22 0.21 0.16 0.14 0.13 0.13 0.14 0.16 0.19 0.18 0.22 0.34 0.43 0.41
0.03 0.04 0.05 0.05 0.05 0.05 0.05 0.04 0.04 0.04 0.04 0.03 0.03 0.02 0.02 0.02 0.02 0.03 0.04 0.04 0.05 0.06 0.04 0.04 0.04 0.04 0.05 0.05 0.07 0.08 0.10 0.13 0.16 0.22 0.27 0.29 0.26 0.29 0.35 0.38 0.34 0.31 0.33 0.39 0.43 0.44 0.39 0.36 0.39 0.39 0.33 0.26 0.21 0.22 0.22 0.28 0.31 0.24 0.22 0.21 0.21 0.31 0.40 0.27 0.23 0.15 0.14 0.14 0.15 0.16 0.17 0.21 0.34 0.43
0.02 0.03 0.04 0.05 0.05 0.06 0.06 0.05 0.04 0.04 0.04 0.04 0.03 0.03 0.03 0.03 0.03 0.04 0.04 0.04 0.05 0.05 0.05 0.04 0.04 0.03 0.03 0.05 0.06 0.08 0.11 0.14 0.14 0.15 0.19 0.24 0.25 0.22 0.25 0.31 0.32 0.32 0.30 0.30 0.33 0.37 0.39 0.37 0.37 0.40 0.40 0.38 0.31 0.24 0.23 0.21 0.24 0.26 0.28 0.27 0.26 0.32 0.30 0.23 0.16 0.15 0.15 0.14 0.15 0.16 0.17 0.22 0.24 0.39
0.02 0.02 0.02 0.03 0.04 0.04 0.05 0.05 0.05 0.05 0.05 0.05 0.05 0.04 0.05 0.05 0.05 0.04 0.04 0.04 0.04 0.04 0.03 0.03 0.02 0.02 0.03 0.04 0.04 0.06 0.09 0.10 0.11 0.14 0.16 0.19 0.22 0.22 0.23 0.27 0.31 0.31 0.31 0.28 0.26 0.27 0.28 0.32 0.35 0.39 0.42 0.39 0.37 0.34 0.32 0.33 0.26 0.24 0.25 0.26 0.28 0.28 0.25 0.36 0.30 0.23 0.19 0.19 0.20 0.22 0.23 0.23 0.23 0.30
0.03 0.02 0.03 0.03 0.04 0.05 0.06 0.06 0.06 0.06 0.07 0.07 0.07 0.07 0.07 0.07 0.08 0.08 0.08 0.09 0.08 0.07 0.06 0.06 0.06 0.05 0.04 0.04 0.03 0.04 0.06 0.07 0.08 0.09 0.12 0.15 0.19 0.25 0.27 0.31 0.26 0.25 0.27 0.28 0.27 0.26 0.27 0.27 0.28 0.39 0.46 0.38 0.38 0.41 0.42 0.41 0.39 0.35 0.29 0.30 0.27 0.28 0.28 0.27 0.25 0.21 0.25 0.27 0.26 0.25 0.26 0.24 0.22 0.22
0.03 0.04 0.04 0.04 0.04 0.05 0.06 0.06 0.07 0.07 0.08 0.08 0.08 0.08 0.09 0.10 0.12 0.13 0.14 0.15 0.14 0.13 0.13 0.12 0.12 0.12 0.11 0.11 0.09 0.08 0.07 0.07 0.07 0.07 0.10 0.13 0.15 0.21 0.29 0.31 0.26 0.19 0.18 0.19 0.20 0.21 0.24 0.27 0.29 0.30 0.40 0.47 0.46 0.44 0.42 0.42 0.42 0.44 0.44 0.43 0.39 0.34 0.32 0.29 0.26 0.24 0.27 0.28 0.28 0.30 0.30 0.29 0.26 0.24
0.03 0.03 0.03 0.04 0.04 0.05 0.06 0.08 0.10 0.10 0.10 0.11 0.11 0.11 0.10 0.11 0.12 0.13 0.16 0.18 0.19 0.19 0.18 0.16 0.14 0.12 0.12 0.11 0.10 0.10 0.08 0.08 0.07 0.08 0.09 0.10 0.16 0.22 0.23 0.24 0.21 0.20 0.19 0.19 0.18 0.17 0.20 0.26 0.36 0.49 0.53 0.56 0.63 0.60 0.48 0.44 0.44 0.47 0.49 0.49 0.51 0.47 0.40 0.36 0.30 0.28 0.28 0.24 0.24 0.28 0.28 0.26 0.27 0.26
0.03 0.04 0.05 0.06 0.06 0.07 0.08 0.09 0.10 0.12 0.14 0.15 0.15 0.14 0.12 0.11 0.11 0.13 0.14 0.14 0.14 0.14 0.15 0.16 0.16 0.16 0.16 0.15 0.15 0.14 0.13 0.12 0.11 0.11 0.12 0.14 0.17 0.17 0.19 0.18 0.16 0.16 0.17 0.18 0.17 0.19 0.22 0.24 0.31 0.45 0.59 0.68 0.67 0.66 0.57 0.47 0.42 0.42 0.44 0.46 0.46 0.46 0.47 0.45 0.40 0.37 0.32 0.28 0.26 0.23 0.28 0.32 0.29 0.28
0.04 0.05 0.06 0.08 0.08 0.09 0.11 0.12 0.14 0.15 0.16 0.16 0.15 0.15 0.16 0.16 0.14 0.15 0.14 0.13 0.13 0.13 0.13 0.12 0.12 0.12 0.13 0.13 0.14 0.14 0.15 0.19 0.21 0.17 0.16 0.12 0.13 0.15 0.17 0.16 0.14 0.15 0.18 0.16 0.14 0.17 0.26 0.29 0.31 0.34 0.41 0.46 0.50 0.47 0.43 0.38 0.34 0.34 0.35 0.36 0.39 0.40 0.40 0.45 0.48 0.47 0.41 0.32 0.29 0.25 0.19 0.16 0.18 0.23
0.06 0.07 0.08 0.09 0.10 0.11 0.12 0.14 0.15 0.15 0.15 0.16 0.17 0.17 0.17 0.17 0.16 0.14 0.13 0.14 0.14 0.13 0.12 0.12 0.12 0.12 0.12 0.12 0.15 0.16 0.15 0.16 0.17 0.20 0.19 0.18 0.20 0.20 0.20 0.22 0.21 0.16 0.16 0.18 0.19 0.16 0.19 0.23 0.30 0.35 0.37 0.40 0.39 0.32 0.30 0.29 0.30 0.30 0.26 0.33 0.41 0.42 0.35 0.37 0.41 0.40 0.40 0.39 0.37 0.32 0.26 0.23 0.20 0.21
0.09 0.10 0.11 0.12 0.12 0.13 0.14 0.15 0.17 0.17 0.17 0.17 0.17 0.17 0.16 0.13 0.12 0.11 0.11 0.12 0.11 0.11 0.11 0.11 0.11 0.11 0.11 0.11 0.12 0.14 0.15 0.15 0.17 0.18 0.17 0.18 0.18 0.18 0.20 0.21 0.21 0.23 0.22 0.22 0.19 0.22 0.24 0.26 0.29 0.32 0.33 0.33 0.31 0.29 0.25 0.25 0.25 0.26 0.27 0.27 0.33 0.37 0.36 0.36 0.36 0.35 0.38 0.43 0.43 0.42 0.41 0.34 0.29 0.33
0.10 0.10 0.11 0.12 0.13 0.13 0.14 0.15 0.15 0.16 0.17 0.17 0.17 0.18 0.18 0.16 0.14 0.15 0.15 0.15 0.14 0.13 0.14 0.15 0.14 0.14 0.14 0.13 0.12 0.12 0.12 0.13 0.14 0.13 0.14 0.15 0.17 0.17 0.16 0.16 0.17 0.19 0.28 0.28 0.27 0.24 0.26 0.28 0.25 0.28 0.25 0.22 0.22 0.26 0.24 0.23 0.23 0.21 0.26 0.33 0.31 0.30 0.37 0.35 0.33 0.36 0.36 0.34 0.38 0.42 0.48 0.47 0.52 0.54
0.10 0.10 0.11 0.11 0.12 0.12 0.13 0.14 0.15 0.15 0.15 0.15 0.15 0.16 0.16 0.17 0.17 0.19 0.20 0.20 0.19 0.19 0.18 0.17 0.17 0.18 0.17 0.17 0.17 0.18 0.17 0.14 0.13 0.13 0.12 0.12 0.14 0.17 0.17 0.17 0.21 0.19 0.22 0.26 0.24 0.25 0.25 0.20 0.19 0.19 0.22 0.23 0.20 0.27 0.43 0.39 0.38 0.37 0.36 0.35 0.36 0.35 0.33 0.38 0.37 0.38 0.37 0.39 0.38 0.40 0.42 0.45 0.46 0.50
0.09 0.10 0.10 0.10 0.11 0.12 0.13 0.14 0.13 0.14 0.14 0.14 0.15 0.16 0.16 0.16 0.16 0.18 0.17 0.17 0.17 0.18 0.19 0.20 0.20 0.20 0.19 0.18 0.17 0.17 0.19 0.18 0.17 0.16 0.15 0.15 0.14 0.14 0.15 0.19 0.24 0.23 0.21 0.20 0.18 0.15 0.13 0.14 0.19 0.19 0.31 0.51 0.39 0.46 0.51 0.41 0.34 0.31 0.31 0.33 0.36 0.37 0.38 0.39 0.40 0.42 0.44 0.46 0.47 0.46 0.49 0.53 0.48 0.47
0.07 0.08 0.08 0.09 0.09 0.11 0.12 0.13 0.13 0.14 0.15 0.16 0.17 0.17 0.18 0.17 0.17 0.17 0.17 0.18 0.19 0.21 0.22 0.21 0.21 0.21 0.20 0.19 0.19 0.20 0.20 0.20 0.19 0.18 0.17 0.16 0.17 0.18 0.18 0.17 0.16 0.15 0.15 0.13 0.10 0.10 0.14 0.16 0.18 0.25 0.33 0.39 0.44 0.43 0.41 0.31 0.23 0.22 0.24 0.27 0.32 0.37 0.41 0.41 0.44 0.45 0.41 0.39 0.39 0.40 0.41 0.42 0.44 0.47
0.07 0.07 0.07 0.07 0.09 0.10 0.11 0.12 0.13 0.14 0.16 0.18 0.20 0.20 0.20 0.20 0.20 0.21 0.22 0.23 0.25 0.27 0.26 0.26 0.25 0.24 0.23 0.23 0.22 0.22 0.22 0.23 0.22 0.22 0.20 0.18 0.17 0.17 0.16 0.16 0.17 0.17 0.19 0.20 0.21 0.23 0.21 0.23 0.24 0.26 0.34 0.36 0.30 0.33 0.35 0.31 0.28 0.25 0.27 0.27 0.38 0.35 0.39 0.48 0.52 0.50 0.49 0.44 0.44 0.37 0.34 0.30 0.31 0.25
0.07 0.07 0.07 0.07 0.08 0.09 0.10 0.11 0.12 0.14 0.16 0.18 0.19 0.19 0.18 0.18 0.19 0.21 0.21 0.22 0.25 0.26 0.26 0.27 0.27 0.27 0.26 0.26 0.28 0.27 0.25 0.24 0.23 0.22 0.22 0.21 0.21 0.20 0.19 0.19 0.20 0.22 0.23 0.20 0.21 0.22 0.22 0.24 0.26 0.26 0.28 0.27 0.25 0.24 0.22 0.25 0.26 0.30 0.31 0.31 0.33 0.32 0.33 0.43 0.58 0.59 0.61 0.63 0.52 0.42 0.34 0.29 0.24 0.21